| time (UTC) | temp F | wind direction | speed MPH | gust MPH | rain 1hr in | rain 24hr in | rain mn in | humidity % | barometer mb |
| 20260508160549 | 63 | 211 | 12.0 | 19.0 | 0.00 | 0.00 | 0.00 | 43 | 1015.8 |
| 20260508160056 | 63 | 190 | 12.0 | 17.0 | 0.00 | 0.00 | 0.00 | 44 | 1015.9 |
| 20260508155543 | 63 | 253 | 12.0 | 17.0 | 0.00 | 0.00 | 0.00 | 44 | 1016.1 |
| 20260508155043 | 63 | 259 | 9.0 | 14.0 | 0.00 | 0.00 | 0.00 | 43 | 1016.2 |
| 20260508154556 | 63 | 244 | 9.0 | 17.0 | 0.00 | 0.00 | 0.00 | 42 | 1016.2 |
| 20260508154043 | 62 | 211 | 11.0 | 18.0 | 0.00 | 0.00 | 0.00 | 42 | 1016.2 |
| 20260508153543 | 62 | 241 | 12.0 | 18.0 | 0.00 | 0.00 | 0.00 | 39 | 1016.3 |
| 20260508153059 | 62 | 219 | 9.0 | 15.0 | 0.00 | 0.00 | 0.00 | 43 | 1016.2 |
| 20260508152542 | 62 | 186 | 8.0 | 12.0 | 0.00 | 0.00 | 0.00 | 43 | 1016.1 |
| 20260508152042 | 61 | 227 | 9.0 | 13.0 | 0.00 | 0.00 | 0.00 | 44 | 1016.1 |
| 20260508151556 | 61 | 261 | 7.0 | 17.0 | 0.00 | 0.00 | 0.00 | 44 | 1016.2 |
| 20260508151047 | 61 | 246 | 8.0 | 17.0 | 0.00 | 0.00 | 0.00 | 43 | 1016.3 |
| 20260508150547 | 61 | 228 | 9.0 | 17.0 | 0.00 | 0.00 | 0.00 | 43 | 1016.3 |
| 20260508150050 | 60 | 229 | 9.0 | 12.0 | 0.00 | 0.00 | 0.00 | 44 | 1016.2 |
| 20260508145544 | 60 | 244 | 8.0 | 18.0 | 0.00 | 0.00 | 0.00 | 44 | 1016.2 |
| 20260508145045 | 59 | 228 | 10.0 | 18.0 | 0.00 | 0.00 | 0.00 | 43 | 1016.3 |
| 20260508144550 | 59 | 252 | 11.0 | 17.0 | 0.00 | 0.00 | 0.00 | 43 | 1016.3 |
| 20260508144045 | 59 | 223 | 12.0 | 18.0 | 0.00 | 0.00 | 0.00 | 43 | 1016.3 |
| 20260508143546 | 59 | 259 | 10.0 | 18.0 | 0.00 | 0.00 | 0.00 | 43 | 1016.3 |
| 20260508143053 | 59 | 237 | 9.0 | 13.0 | 0.00 | 0.00 | 0.00 | 44 | 1016.3 |
| 20260508142546 | 59 | 203 | 5.0 | 10.0 | 0.00 | 0.00 | 0.00 | 47 | 1016.2 |
| 20260508142043 | 58 | 151 | 5.0 | 10.0 | 0.00 | 0.00 | 0.00 | 46 | 1016.2 |
| 20260508141554 | 58 | 202 | 5.0 | 12.0 | 0.00 | 0.00 | 0.00 | 48 | 1016.3 |
| 20260508141048 | 57 | 235 | 7.0 | 12.0 | 0.00 | 0.00 | 0.00 | 48 | 1016.3 |
| 20260508140548 | 57 | 186 | 7.0 | 12.0 | 0.00 | 0.00 | 0.00 | 48 | 1016.3 |
| 20260508140108 | 56 | 178 | 7.0 | 16.0 | 0.00 | 0.00 | 0.00 | 50 | 1016.3 |
| 20260508135548 | 56 | 167 | 9.0 | 16.0 | 0.00 | 0.00 | 0.00 | 50 | 1016.4 |
| 20260508135048 | 56 | 192 | 9.0 | 16.0 | 0.00 | 0.00 | 0.00 | 50 | 1016.3 |
| 20260508134606 | 55 | 202 | 9.0 | 16.0 | 0.00 | 0.00 | 0.00 | 51 | 1016.3 |
| 20260508134048 | 54 | 198 | 8.0 | 12.0 | 0.00 | 0.00 | 0.00 | 55 | 1016.3 |
| 20260508133548 | 54 | 201 | 7.0 | 12.0 | 0.00 | 0.00 | 0.00 | 57 | 1016.4 |
| 20260508133111 | 53 | 180 | 6.0 | 11.0 | 0.00 | 0.00 | 0.00 | 59 | 1016.4 |
| 20260508132547 | 52 | 165 | 6.0 | 10.0 | 0.00 | 0.00 | 0.00 | 62 | 1016.4 |
| 20260508132047 | 51 | 193 | 4.0 | 6.0 | 0.00 | 0.00 | 0.00 | 66 | 1016.4 |
| 20260508131603 | 51 | 196 | 1.0 | 5.0 | 0.00 | 0.00 | 0.00 | 69 | 1016.4 |
| 20260508131049 | 50 | 0 | 1.0 | 4.0 | 0.00 | 0.00 | 0.00 | 71 | 1016.4 |
| 20260508130553 | 49 | 164 | 0.0 | 3.0 | 0.00 | 0.00 | 0.00 | 74 | 1016.3 |
| 20260508125548 | 48 | 0 | 0.0 | 1.0 | 0.00 | 0.00 | 0.00 | 76 | 1016.4 |
| 20260508125049 | 47 | 0 | 0.0 | 1.0 | 0.00 | 0.00 | 0.00 | 77 | 1016.5 |
| 20260508124556 | 47 | 0 | 0.0 | 2.0 | 0.00 | 0.00 | 0.00 | 78 | 1016.5 |
| 20260508124048 | 46 | 0 | 0.0 | 2.0 | 0.00 | 0.00 | 0.00 | 81 | 1016.4 |
| 20260508123548 | 45 | 0 | 0.0 | 2.0 | 0.00 | 0.00 | 0.00 | 81 | 1016.5 |
| 20260508123104 | 45 | 0 | 0.0 | 0.0 | 0.00 | 0.00 | 0.00 | 82 | 1016.5 |
| 20260508122547 | 44 | 0 | 0.0 | 0.0 | 0.00 | 0.00 | 0.00 | 83 | 1016.5 |
| 20260508122047 | 43 | 0 | 0.0 | 0.0 | 0.00 | 0.00 | 0.00 | 83 | 1016.4 |
| 20260508121557 | 43 | 0 | 0.0 | 0.0 | 0.00 | 0.00 | 0.00 | 84 | 1016.4 |
| 20260508121046 | 42 | 0 | 0.0 | 0.0 | 0.00 | 0.00 | 0.00 | 86 | 1016.3 |
| 20260508120549 | 42 | 0 | 0.0 | 0.0 | 0.00 | 0.00 | 0.00 | 88 | 1016.4 |
| 20260508120100 | 41 | 0 | 0.0 | 0.0 | 0.00 | 0.00 | 0.00 | 89 | 1016.3 |
| 20260508115547 | 40 | 0 | 0.0 | 0.0 | 0.00 | 0.00 | 0.00 | 91 | 1016.3 |
| 20260508115047 | 40 | 0 | 0.0 | 0.0 | 0.00 | 0.00 | 0.00 | 92 | 1016.2 |
| 20260508114604 | 39 | 0 | 0.0 | 0.0 | 0.00 | 0.00 | 0.00 | 92 | 1016.2 |
| 20260508114048 | 39 | 0 | 0.0 | 0.0 | 0.00 | 0.00 | 0.00 | 92 | 1016.2 |
| 20260508113548 | 38 | 0 | 0.0 | 0.0 | 0.00 | 0.00 | 0.00 | 93 | 1016.2 |
| 20260508113102 | 38 | 0 | 0.0 | 0.0 | 0.00 | 0.00 | 0.00 | 92 | 1016.1 |
| 20260508112546 | 37 | 0 | 0.0 | 0.0 | 0.00 | 0.00 | 0.00 | 92 | 1016.2 |
| 20260508112047 | 37 | 0 | 0.0 | 1.0 | 0.00 | 0.00 | 0.00 | 92 | 1016.2 |
| 20260508111601 | 37 | 0 | 0.0 | 1.0 | 0.00 | 0.00 | 0.00 | 92 | 1016.2 |
| 20260508111049 | 37 | 0 | 0.0 | 2.0 | 0.00 | 0.00 | 0.00 | 92 | 1016.2 |
| 20260508110545 | 37 | 0 | 0.0 | 2.0 | 0.00 | 0.00 | 0.00 | 92 | 1016.1 |
| 20260508110100 | 37 | 119 | 0.0 | 2.0 | 0.00 | 0.00 | 0.00 | 92 | 1016.2 |
| 20260508105545 | 36 | 0 | 0.0 | 0.0 | 0.00 | 0.00 | 0.00 | 92 | 1016.1 |
| 20260508105046 | 36 | 0 | 0.0 | 0.0 | 0.00 | 0.00 | 0.00 | 92 | 1016.0 |
| 20260508104557 | 36 | 0 | 0.0 | 0.0 | 0.00 | 0.00 | 0.00 | 92 | 1016.0 |
| 20260508104046 | 36 | 0 | 0.0 | 0.0 | 0.00 | 0.00 | 0.00 | 92 | 1016.1 |
| 20260508103545 | 36 | 0 | 0.0 | 0.0 | 0.00 | 0.00 | 0.00 | 91 | 1016.0 |
| 20260508103054 | 36 | 0 | 0.0 | 0.0 | 0.00 | 0.00 | 0.00 | 91 | 1015.9 |
| 20260508102545 | 36 | 0 | 0.0 | 0.0 | 0.00 | 0.00 | 0.00 | 91 | 1015.8 |
| 20260508102046 | 36 | 0 | 0.0 | 0.0 | 0.00 | 0.00 | 0.00 | 91 | 1015.8 |
| 20260508101558 | 36 | 0 | 0.0 | 0.0 | 0.00 | 0.00 | 0.00 | 91 | 1015.7 |
| 20260508101046 | 36 | 0 | 0.0 | 0.0 | 0.00 | 0.00 | 0.00 | 91 | 1015.6 |
| 20260508100545 | 36 | 0 | 0.0 | 0.0 | 0.00 | 0.00 | 0.00 | 91 | 1015.6 |
| 20260508100056 | 36 | 0 | 0.0 | 0.0 | 0.00 | 0.00 | 0.00 | 91 | 1015.6 |
| 20260508095546 | 37 | 0 | 0.0 | 0.0 | 0.00 | 0.00 | 0.00 | 91 | 1015.6 |
| 20260508095046 | 37 | 0 | 0.0 | 0.0 | 0.00 | 0.00 | 0.00 | 91 | 1015.7 |
| 20260508094601 | 37 | 0 | 0.0 | 0.0 | 0.00 | 0.00 | 0.00 | 91 | 1015.6 |
| 20260508094045 | 37 | 0 | 0.0 | 0.0 | 0.00 | 0.00 | 0.00 | 91 | 1015.6 |
| 20260508093545 | 37 | 0 | 0.0 | 0.0 | 0.00 | 0.00 | 0.00 | 91 | 1015.7 |
| 20260508093055 | 37 | 0 | 0.0 | 0.0 | 0.00 | 0.00 | 0.00 | 91 | 1015.7 |
| 20260508092543 | 37 | 0 | 0.0 | 0.0 | 0.00 | 0.00 | 0.00 | 91 | 1015.6 |
| 20260508092045 | 37 | 0 | 0.0 | 0.0 | 0.00 | 0.00 | 0.00 | 91 | 1015.6 |
| 20260508091614 | 37 | 0 | 0.0 | 0.0 | 0.00 | 0.00 | 0.00 | 91 | 1015.6 |
| 20260508091043 | 37 | 0 | 0.0 | 0.0 | 0.00 | 0.00 | 0.00 | 91 | 1015.7 |
| 20260508090547 | 37 | 0 | 0.0 | 0.0 | 0.00 | 0.00 | 0.00 | 91 | 1015.6 |
| 20260508090106 | 37 | 0 | 0.0 | 0.0 | 0.00 | 0.00 | 0.00 | 91 | 1015.7 |
| 20260508085546 | 37 | 0 | 0.0 | 0.0 | 0.00 | 0.00 | 0.00 | 91 | 1015.5 |
| 20260508085049 | 37 | 0 | 0.0 | 0.0 | 0.00 | 0.00 | 0.00 | 91 | 1015.6 |
| 20260508084557 | 37 | 0 | 0.0 | 0.0 | 0.00 | 0.00 | 0.00 | 91 | 1015.5 |
| 20260508084046 | 37 | 0 | 0.0 | 0.0 | 0.00 | 0.00 | 0.00 | 91 | 1015.4 |
| 20260508083545 | 37 | 0 | 0.0 | 0.0 | 0.00 | 0.00 | 0.00 | 91 | 1015.5 |
| 20260508083054 | 37 | 0 | 0.0 | 0.0 | 0.00 | 0.00 | 0.00 | 91 | 1015.5 |
| 20260508082545 | 37 | 0 | 0.0 | 0.0 | 0.00 | 0.00 | 0.00 | 90 | 1015.4 |
| 20260508082047 | 37 | 0 | 0.0 | 0.0 | 0.00 | 0.00 | 0.00 | 90 | 1015.4 |
| 20260508081558 | 38 | 0 | 0.0 | 0.0 | 0.00 | 0.00 | 0.00 | 90 | 1015.5 |
| 20260508081046 | 38 | 0 | 0.0 | 0.0 | 0.00 | 0.00 | 0.00 | 90 | 1015.5 |
| 20260508080542 | 38 | 0 | 0.0 | 0.0 | 0.00 | 0.00 | 0.00 | 90 | 1015.4 |
| 20260508080054 | 38 | 0 | 0.0 | 0.0 | 0.00 | 0.00 | 0.00 | 90 | 1015.5 |
| 20260508075547 | 38 | 0 | 0.0 | 0.0 | 0.00 | 0.00 | 0.00 | 90 | 1015.5 |
| 20260508075048 | 38 | 0 | 0.0 | 0.0 | 0.00 | 0.00 | 0.00 | 90 | 1015.5 |
| 20260508074554 | 38 | 0 | 0.0 | 0.0 | 0.00 | 0.00 | 0.00 | 89 | 1015.4 |
| 20260508074046 | 38 | 0 | 0.0 | 3.0 | 0.00 | 0.00 | 0.00 | 89 | 1015.5 |
| 20260508073547 | 38 | 0 | 0.0 | 3.0 | 0.00 | 0.00 | 0.00 | 89 | 1015.5 |
| 20260508073055 | 38 | 188 | 1.0 | 3.0 | 0.00 | 0.00 | 0.00 | 89 | 1015.5 |
| 20260508072545 | 39 | 188 | 0.0 | 3.0 | 0.00 | 0.00 | 0.00 | 89 | 1015.5 |
| 20260508072045 | 39 | 0 | 0.0 | 3.0 | 0.00 | 0.00 | 0.00 | 89 | 1015.5 |
| 20260508071554 | 39 | 188 | 2.0 | 3.0 | 0.00 | 0.00 | 0.00 | 89 | 1015.5 |
| 20260508071045 | 39 | 188 | 0.0 | 2.0 | 0.00 | 0.00 | 0.00 | 89 | 1015.6 |
| 20260508070545 | 39 | 188 | 0.0 | 0.0 | 0.00 | 0.00 | 0.00 | 88 | 1015.6 |
| 20260508070100 | 39 | 0 | 0.0 | 0.0 | 0.00 | 0.00 | 0.00 | 88 | 1015.6 |
| 20260508065546 | 39 | 0 | 0.0 | 0.0 | 0.00 | 0.00 | 0.00 | 88 | 1015.6 |
| 20260508065046 | 39 | 0 | 0.0 | 0.0 | 0.00 | 0.00 | 0.00 | 88 | 1015.4 |
| 20260508064552 | 39 | 0 | 0.0 | 0.0 | 0.00 | 0.00 | 0.00 | 88 | 1015.5 |
| 20260508064047 | 39 | 0 | 0.0 | 0.0 | 0.00 | 0.00 | 0.00 | 88 | 1015.4 |
| 20260508063547 | 39 | 0 | 0.0 | 2.0 | 0.00 | 0.00 | 0.00 | 88 | 1015.5 |
| 20260508063123 | 39 | 0 | 0.0 | 3.0 | 0.00 | 0.00 | 0.00 | 88 | 1015.6 |
| 20260508062546 | 40 | 188 | 1.0 | 3.0 | 0.00 | 0.00 | 0.00 | 87 | 1015.6 |
| 20260508062047 | 40 | 188 | 0.0 | 3.0 | 0.00 | 0.00 | 0.00 | 87 | 1015.7 |
| 20260508061555 | 40 | 188 | 1.0 | 4.0 | 0.00 | 0.00 | 0.00 | 87 | 1015.7 |
| 20260508061046 | 40 | 188 | 2.0 | 4.0 | 0.00 | 0.00 | 0.00 | 87 | 1015.8 |
| 20260508060546 | 40 | 175 | 0.0 | 0.0 | 0.00 | 0.00 | 0.00 | 86 | 1015.8 |
| 20260508060056 | 40 | 0 | 0.0 | 2.0 | 0.00 | 0.00 | 0.00 | 86 | 1015.8 |
| 20260508055547 | 40 | 0 | 0.0 | 3.0 | 0.00 | 0.00 | 0.00 | 86 | 1015.8 |
| 20260508055047 | 40 | 175 | 1.0 | 6.0 | 0.00 | 0.00 | 0.00 | 85 | 1015.7 |
| 20260508054555 | 41 | 0 | 3.0 | 6.0 | 0.00 | 0.00 | 0.00 | 85 | 1015.8 |
| 20260508054046 | 41 | 200 | 3.0 | 5.0 | 0.00 | 0.00 | 0.00 | 85 | 1015.8 |
| 20260508053547 | 41 | 207 | 3.0 | 5.0 | 0.00 | 0.00 | 0.00 | 85 | 1015.7 |
| 20260508053059 | 41 | 178 | 2.0 | 4.0 | 0.00 | 0.00 | 0.00 | 85 | 1015.6 |
| 20260508052546 | 41 | 190 | 2.0 | 4.0 | 0.00 | 0.00 | 0.00 | 84 | 1015.7 |
| 20260508052045 | 41 | 197 | 2.0 | 4.0 | 0.00 | 0.00 | 0.00 | 84 | 1015.7 |
| 20260508051618 | 41 | 181 | 1.0 | 2.0 | 0.00 | 0.00 | 0.00 | 84 | 1015.7 |
| 20260508051046 | 41 | 0 | 0.0 | 4.0 | 0.00 | 0.00 | 0.00 | 83 | 1015.6 |
| 20260508050545 | 42 | 0 | 0.0 | 4.0 | 0.00 | 0.00 | 0.00 | 83 | 1015.5 |
| 20260508050058 | 42 | 186 | 3.0 | 4.0 | 0.00 | 0.00 | 0.00 | 83 | 1015.4 |
| 20260508045546 | 42 | 209 | 2.0 | 4.0 | 0.00 | 0.00 | 0.00 | 83 | 1015.4 |
| 20260508045048 | 42 | 194 | 2.0 | 4.0 | 0.00 | 0.00 | 0.00 | 83 | 1015.4 |
| 20260508044554 | 42 | 194 | 3.0 | 4.0 | 0.00 | 0.00 | 0.00 | 82 | 1015.5 |
| 20260508044046 | 42 | 194 | 2.0 | 4.0 | 0.00 | 0.00 | 0.00 | 82 | 1015.6 |
| 20260508043545 | 43 | 194 | 2.0 | 4.0 | 0.00 | 0.00 | 0.00 | 82 | 1015.5 |
| 20260508043056 | 43 | 194 | 2.0 | 3.0 | 0.00 | 0.00 | 0.00 | 81 | 1015.5 |
| 20260508042547 | 43 | 194 | 2.0 | 4.0 | 0.00 | 0.00 | 0.00 | 81 | 1015.6 |
| 20260508042047 | 43 | 186 | 2.0 | 4.0 | 0.00 | 0.00 | 0.00 | 80 | 1015.6 |
| 20260508041554 | 43 | 190 | 3.0 | 4.0 | 0.00 | 0.00 | 0.00 | 80 | 1015.6 |
| 20260508041047 | 43 | 190 | 3.0 | 4.0 | 0.00 | 0.00 | 0.00 | 79 | 1015.6 |
| 20260508040547 | 44 | 191 | 0.0 | 4.0 | 0.00 | 0.00 | 0.00 | 79 | 1015.6 |
| 20260508040056 | 44 | 0 | 1.0 | 5.0 | 0.00 | 0.00 | 0.00 | 78 | 1015.6 |
| 20260508035546 | 44 | 198 | 3.0 | 5.0 | 0.00 | 0.00 | 0.00 | 78 | 1015.6 |
| 20260508035046 | 44 | 200 | 3.0 | 4.0 | 0.00 | 0.00 | 0.00 | 78 | 1015.5 |
| 20260508034552 | 45 | 196 | 3.0 | 4.0 | 0.00 | 0.00 | 0.00 | 77 | 1015.5 |
| 20260508034046 | 45 | 184 | 2.0 | 4.0 | 0.00 | 0.00 | 0.00 | 75 | 1015.5 |
| 20260508033545 | 45 | 198 | 2.0 | 3.0 | 0.00 | 0.00 | 0.00 | 74 | 1015.5 |
| 20260508033055 | 46 | 188 | 2.0 | 3.0 | 0.00 | 0.00 | 0.00 | 75 | 1015.6 |
| 20260508032546 | 46 | 0 | 0.0 | 2.0 | 0.00 | 0.00 | 0.00 | 73 | 1015.6 |
| 20260508032046 | 46 | 0 | 0.0 | 3.0 | 0.00 | 0.00 | 0.00 | 73 | 1015.6 |
| 20260508031551 | 46 | 188 | 1.0 | 5.0 | 0.00 | 0.00 | 0.00 | 72 | 1015.7 |
| 20260508031045 | 47 | 185 | 2.0 | 5.0 | 0.00 | 0.00 | 0.00 | 71 | 1015.7 |
| 20260508030547 | 47 | 188 | 3.0 | 5.0 | 0.00 | 0.00 | 0.00 | 69 | 1015.6 |
| 20260508030051 | 48 | 197 | 2.0 | 4.0 | 0.00 | 0.00 | 0.00 | 67 | 1015.5 |
| 20260508025547 | 48 | 0 | 0.0 | 0.0 | 0.00 | 0.00 | 0.00 | 66 | 1015.5 |
| 20260508025046 | 49 | 0 | 0.0 | 0.0 | 0.00 | 0.00 | 0.00 | 65 | 1015.5 |
| 20260508024552 | 49 | 0 | 0.0 | 0.0 | 0.00 | 0.00 | 0.00 | 63 | 1015.5 |
| 20260508024047 | 50 | 0 | 0.0 | 0.0 | 0.00 | 0.00 | 0.00 | 61 | 1015.4 |
| 20260508023547 | 50 | 0 | 0.0 | 1.0 | 0.00 | 0.00 | 0.00 | 62 | 1015.4 |
| 20260508023052 | 50 | 0 | 0.0 | 1.0 | 0.00 | 0.00 | 0.00 | 59 | 1015.4 |
| 20260508022545 | 51 | 0 | 0.0 | 0.0 | 0.00 | 0.00 | 0.00 | 58 | 1015.3 |
| 20260508022048 | 51 | 0 | 0.0 | 1.0 | 0.00 | 0.00 | 0.00 | 58 | 1015.3 |
| 20260508021555 | 51 | 0 | 0.0 | 2.0 | 0.00 | 0.00 | 0.00 | 54 | 1015.2 |
| 20260508021045 | 51 | 21 | 0.0 | 2.0 | 0.00 | 0.00 | 0.00 | 54 | 1015.2 |
| 20260508020545 | 52 | 21 | 0.0 | 3.0 | 0.00 | 0.00 | 0.00 | 52 | 1015.1 |
| 20260508020104 | 52 | 21 | 0.0 | 4.0 | 0.00 | 0.00 | 0.00 | 49 | 1015.0 |
| 20260508015545 | 52 | 21 | 1.0 | 4.0 | 0.00 | 0.00 | 0.00 | 50 | 1015.0 |
| 20260508015045 | 53 | 30 | 2.0 | 5.0 | 0.00 | 0.00 | 0.00 | 50 | 1014.9 |
| 20260508014555 | 54 | 296 | 3.0 | 5.0 | 0.00 | 0.00 | 0.00 | 44 | 1014.9 |
| 20260508014045 | 54 | 292 | 3.0 | 4.0 | 0.00 | 0.00 | 0.00 | 44 | 1014.9 |
| 20260508013545 | 54 | 292 | 2.0 | 4.0 | 0.00 | 0.00 | 0.00 | 44 | 1014.7 |
| 20260508013055 | 54 | 292 | 2.0 | 4.0 | 0.00 | 0.00 | 0.00 | 44 | 1014.6 |
| 20260508012548 | 55 | 292 | 3.0 | 4.0 | 0.00 | 0.00 | 0.00 | 43 | 1014.5 |
| 20260508012047 | 55 | 291 | 3.0 | 4.0 | 0.00 | 0.00 | 0.00 | 42 | 1014.4 |
| 20260508011556 | 55 | 301 | 3.0 | 4.0 | 0.00 | 0.00 | 0.00 | 42 | 1014.3 |
| 20260508011046 | 55 | 309 | 3.0 | 4.0 | 0.00 | 0.00 | 0.00 | 41 | 1014.2 |
| 20260508010546 | 56 | 304 | 3.0 | 5.0 | 0.00 | 0.00 | 0.00 | 40 | 1014.2 |
| 20260508005545 | 56 | 293 | 3.0 | 5.0 | 0.00 | 0.00 | 0.00 | 40 | 1014.0 |
| 20260508005046 | 56 | 311 | 3.0 | 5.0 | 0.00 | 0.00 | 0.00 | 39 | 1014.1 |
| 20260508004555 | 56 | 300 | 3.0 | 6.0 | 0.00 | 0.00 | 0.00 | 38 | 1014.1 |
| 20260508004047 | 57 | 322 | 3.0 | 6.0 | 0.00 | 0.00 | 0.00 | 38 | 1014.1 |
| 20260508003545 | 57 | 315 | 4.0 | 7.0 | 0.00 | 0.00 | 0.00 | 38 | 1014.0 |
| 20260508003103 | 57 | 304 | 3.0 | 8.0 | 0.00 | 0.00 | 0.00 | 38 | 1014.1 |
| 20260508002548 | 57 | 308 | 4.0 | 8.0 | 0.00 | 0.00 | 0.00 | 37 | 1014.1 |
| 20260508002048 | 58 | 296 | 5.0 | 9.0 | 0.00 | 0.00 | 0.00 | 36 | 1014.0 |
| 20260508001556 | 58 | 299 | 6.0 | 12.0 | 0.00 | 0.00 | 0.00 | 36 | 1013.8 |
| 20260508001045 | 58 | 309 | 7.0 | 12.0 | 0.00 | 0.00 | 0.00 | 35 | 1013.7 |
| 20260508000547 | 58 | 320 | 6.0 | 11.0 | 0.00 | 0.00 | 0.00 | 35 | 1013.6 |
| 20260508000054 | 59 | 329 | 6.0 | 15.0 | 0.00 | 0.00 | 0.00 | 35 | 1013.7 |
| 20260507235548 | 59 | 331 | 10.0 | 15.0 | 0.00 | 0.00 | 0.00 | 33 | 1013.6 |
| 20260507235047 | 59 | 312 | 7.0 | 15.0 | 0.00 | 0.00 | 0.00 | 34 | 1013.6 |
| 20260507234557 | 59 | 322 | 7.0 | 15.0 | 0.00 | 0.00 | 0.00 | 34 | 1013.6 |
| 20260507234046 | 59 | 338 | 9.0 | 15.0 | 0.00 | 0.00 | 0.00 | 33 | 1013.5 |
| 20260507233546 | 60 | 334 | 6.0 | 13.0 | 0.00 | 0.00 | 0.00 | 35 | 1013.4 |
| 20260507233055 | 60 | 328 | 9.0 | 15.0 | 0.00 | 0.00 | 0.00 | 34 | 1013.3 |
| 20260507232545 | 60 | 338 | 8.0 | 15.0 | 0.00 | 0.00 | 0.00 | 34 | 1013.3 |
| 20260507232046 | 60 | 12 | 10.0 | 15.0 | 0.00 | 0.00 | 0.00 | 33 | 1013.3 |
| 20260507231553 | 60 | 333 | 11.0 | 14.0 | 0.00 | 0.00 | 0.00 | 32 | 1013.3 |
| 20260507231045 | 60 | 296 | 10.0 | 16.0 | 0.00 | 0.00 | 0.00 | 33 | 1013.2 |
| 20260507230546 | 61 | 311 | 11.0 | 16.0 | 0.00 | 0.00 | 0.00 | 32 | 1013.2 |
| 20260507230109 | 61 | 285 | 9.0 | 16.0 | 0.00 | 0.00 | 0.00 | 32 | 1013.1 |
| 20260507225545 | 61 | 319 | 11.0 | 18.0 | 0.00 | 0.00 | 0.00 | 31 | 1013.2 |
| 20260507225046 | 61 | 292 | 13.0 | 18.0 | 0.00 | 0.00 | 0.00 | 30 | 1013.2 |
| 20260507224555 | 61 | 289 | 8.0 | 13.0 | 0.00 | 0.00 | 0.00 | 33 | 1013.2 |
| 20260507224048 | 61 | 276 | 9.0 | 13.0 | 0.00 | 0.00 | 0.00 | 30 | 1013.2 |
| 20260507223547 | 61 | 293 | 10.0 | 13.0 | 0.00 | 0.00 | 0.00 | 30 | 1013.2 |
| 20260507223159 | 61 | 333 | 7.0 | 15.0 | 0.00 | 0.00 | 0.00 | 30 | 1013.2 |
| 20260507222547 | 61 | 296 | 10.0 | 17.0 | 0.00 | 0.00 | 0.00 | 30 | 1013.2 |
| 20260507222046 | 61 | 293 | 12.0 | 21.0 | 0.00 | 0.00 | 0.00 | 30 | 1013.2 |
| 20260507221557 | 61 | 316 | 12.0 | 19.0 | 0.00 | 0.00 | 0.00 | 30 | 1013.2 |
| 20260507221046 | 61 | 287 | 13.0 | 17.0 | 0.00 | 0.00 | 0.00 | 30 | 1013.1 |
| 20260507220545 | 62 | 280 | 10.0 | 18.0 | 0.00 | 0.00 | 0.00 | 30 | 1013.1 |
| 20260507220055 | 61 | 278 | 13.0 | 20.0 | 0.00 | 0.00 | 0.00 | 30 | 1013.0 |
| 20260507215546 | 62 | 283 | 14.0 | 20.0 | 0.00 | 0.00 | 0.00 | 30 | 1013.0 |
| 20260507215046 | 62 | 263 | 10.0 | 17.0 | 0.00 | 0.00 | 0.00 | 32 | 1012.9 |
| 20260507214558 | 62 | 315 | 10.0 | 20.0 | 0.00 | 0.00 | 0.00 | 34 | 1012.8 |
| 20260507214045 | 62 | 250 | 10.0 | 20.0 | 0.00 | 0.00 | 0.00 | 34 | 1012.8 |
| 20260507213547 | 62 | 252 | 12.0 | 18.0 | 0.00 | 0.00 | 0.00 | 35 | 1012.8 |
| 20260507213124 | 62 | 310 | 12.0 | 20.0 | 0.00 | 0.00 | 0.00 | 33 | 1012.8 |
| 20260507212545 | 62 | 287 | 11.0 | 20.0 | 0.00 | 0.00 | 0.00 | 34 | 1012.7 |
| 20260507212047 | 62 | 298 | 14.0 | 23.0 | 0.00 | 0.00 | 0.00 | 33 | 1012.8 |
| 20260507211553 | 62 | 277 | 13.0 | 22.0 | 0.00 | 0.00 | 0.00 | 32 | 1012.5 |
| 20260507211048 | 62 | 261 | 12.0 | 19.0 | 0.00 | 0.00 | 0.00 | 33 | 1012.5 |
| 20260507210549 | 62 | 334 | 11.0 | 24.0 | 0.00 | 0.00 | 0.00 | 34 | 1012.6 |
| 20260507205548 | 62 | 265 | 11.0 | 24.0 | 0.00 | 0.00 | 0.00 | 35 | 1012.7 |
| 20260507205053 | 62 | 323 | 9.0 | 20.0 | 0.00 | 0.00 | 0.00 | 36 | 1012.5 |
| 20260507204553 | 62 | 298 | 13.0 | 21.0 | 0.00 | 0.00 | 0.00 | 34 | 1012.5 |
| 20260507204046 | 62 | 304 | 14.0 | 21.0 | 0.00 | 0.00 | 0.00 | 34 | 1012.5 |
| 20260507203548 | 62 | 272 | 14.0 | 20.0 | 0.00 | 0.00 | 0.00 | 35 | 1012.3 |
| 20260507203054 | 62 | 316 | 10.0 | 22.0 | 0.00 | 0.00 | 0.00 | 36 | 1012.4 |
| 20260507202549 | 62 | 325 | 10.0 | 22.0 | 0.00 | 0.00 | 0.00 | 35 | 1012.4 |
| 20260507202050 | 62 | 308 | 12.0 | 21.0 | 0.00 | 0.00 | 0.00 | 35 | 1012.5 |
| 20260507201604 | 62 | 317 | 13.0 | 23.0 | 0.00 | 0.00 | 0.00 | 36 | 1012.4 |
| 20260507201047 | 62 | 300 | 16.0 | 23.0 | 0.00 | 0.00 | 0.00 | 36 | 1012.4 |
| 20260507200546 | 62 | 325 | 12.0 | 17.0 | 0.00 | 0.00 | 0.00 | 36 | 1012.4 |
| 20260507200108 | 62 | 323 | 9.0 | 16.0 | 0.00 | 0.00 | 0.00 | 36 | 1012.4 |
| 20260507195547 | 63 | 248 | 7.0 | 21.0 | 0.00 | 0.00 | 0.00 | 38 | 1012.4 |
| 20260507195047 | 62 | 276 | 14.0 | 21.0 | 0.00 | 0.00 | 0.00 | 36 | 1012.4 |
| 20260507194554 | 62 | 319 | 9.0 | 19.0 | 0.00 | 0.00 | 0.00 | 37 | 1012.5 |
| 20260507194050 | 62 | 294 | 11.0 | 18.0 | 0.00 | 0.00 | 0.00 | 37 | 1012.6 |
| 20260507193547 | 61 | 277 | 6.0 | 18.0 | 0.00 | 0.00 | 0.00 | 39 | 1012.5 |
| 20260507193055 | 62 | 248 | 12.0 | 18.0 | 0.00 | 0.00 | 0.00 | 38 | 1012.5 |
| 20260507192546 | 62 | 291 | 11.0 | 23.0 | 0.00 | 0.00 | 0.00 | 38 | 1012.5 |
| 20260507192046 | 62 | 223 | 12.0 | 23.0 | 0.00 | 0.00 | 0.00 | 38 | 1012.5 |
| 20260507191553 | 61 | 343 | 9.0 | 18.0 | 0.00 | 0.00 | 0.00 | 38 | 1012.7 |
| 20260507191046 | 61 | 341 | 12.0 | 16.0 | 0.00 | 0.00 | 0.00 | 38 | 1012.8 |
| 20260507190545 | 61 | 291 | 9.0 | 16.0 | 0.00 | 0.00 | 0.00 | 38 | 1012.8 |
| 20260507190053 | 61 | 324 | 5.0 | 16.0 | 0.00 | 0.00 | 0.00 | 41 | 1012.7 |
| 20260507185546 | 61 | 327 | 7.0 | 16.0 | 0.00 | 0.00 | 0.00 | 41 | 1012.8 |
| 20260507185049 | 62 | 306 | 12.0 | 15.0 | 0.00 | 0.00 | 0.00 | 41 | 1013.2 |
| 20260507184554 | 62 | 307 | 8.0 | 19.0 | 0.00 | 0.00 | 0.00 | 41 | 1013.1 |
| 20260507184047 | 62 | 303 | 11.0 | 19.0 | 0.00 | 0.00 | 0.00 | 39 | 1013.2 |
| 20260507183550 | 62 | 243 | 6.0 | 19.0 | 0.00 | 0.00 | 0.00 | 41 | 1012.9 |
| 20260507183056 | 62 | 294 | 7.0 | 15.0 | 0.00 | 0.00 | 0.00 | 42 | 1012.8 |
| 20260507182547 | 62 | 253 | 10.0 | 15.0 | 0.00 | 0.00 | 0.00 | 43 | 1013.1 |
| 20260507182047 | 62 | 342 | 5.0 | 17.0 | 0.00 | 0.00 | 0.00 | 42 | 1013.1 |
| 20260507181604 | 61 | 263 | 11.0 | 17.0 | 0.00 | 0.00 | 0.00 | 42 | 1013.3 |
| 20260507181049 | 61 | 223 | 11.0 | 17.0 | 0.00 | 0.00 | 0.00 | 40 | 1013.3 |
| 20260507180547 | 61 | 311 | 11.0 | 17.0 | 0.00 | 0.00 | 0.00 | 40 | 1013.3 |
| 20260507180056 | 61 | 297 | 9.0 | 25.0 | 0.00 | 0.00 | 0.00 | 41 | 1013.3 |
| 20260507175548 | 61 | 290 | 11.0 | 25.0 | 0.00 | 0.00 | 0.00 | 42 | 1013.3 |
| 20260507175046 | 60 | 331 | 7.0 | 26.0 | 0.00 | 0.00 | 0.00 | 43 | 1013.3 |
| 20260507174602 | 60 | 342 | 12.0 | 26.0 | 0.00 | 0.00 | 0.00 | 42 | 1013.4 |
| 20260507174045 | 61 | 285 | 6.0 | 18.0 | 0.00 | 0.00 | 0.00 | 42 | 1013.4 |
| 20260507173546 | 60 | 310 | 12.0 | 18.0 | 0.00 | 0.00 | 0.00 | 41 | 1013.5 |
| 20260507173100 | 60 | 293 | 11.0 | 17.0 | 0.00 | 0.00 | 0.00 | 40 | 1013.7 |
| 20260507172550 | 60 | 336 | 6.0 | 17.0 | 0.00 | 0.00 | 0.00 | 44 | 1013.6 |
| 20260507172047 | 60 | 207 | 11.0 | 17.0 | 0.00 | 0.00 | 0.00 | 42 | 1013.6 |
| 20260507171603 | 60 | 294 | 10.0 | 18.0 | 0.00 | 0.00 | 0.00 | 44 | 1013.6 |
| 20260507171047 | 60 | 242 | 13.0 | 18.0 | 0.00 | 0.00 | 0.00 | 43 | 1013.5 |
| 20260507170549 | 60 | 311 | 4.0 | 15.0 | 0.00 | 0.00 | 0.00 | 45 | 1013.6 |
| 20260507170053 | 60 | 310 | 7.0 | 14.0 | 0.00 | 0.00 | 0.00 | 44 | 1013.7 |
| 20260507165547 | 60 | 231 | 7.0 | 12.0 | 0.00 | 0.00 | 0.00 | 43 | 1013.6 |
| 20260507165048 | 59 | 172 | 3.0 | 15.0 | 0.00 | 0.00 | 0.00 | 44 | 1013.8 |
| 20260507164551 | 59 | 333 | 9.0 | 16.0 | 0.00 | 0.00 | 0.00 | 45 | 1013.9 |
| 20260507164047 | 59 | 285 | 10.0 | 16.0 | 0.00 | 0.00 | 0.00 | 48 | 1014.0 |
| 20260507163544 | 58 | 261 | 6.0 | 15.0 | 0.00 | 0.00 | 0.00 | 47 | 1014.0 |
| 20260507163056 | 59 | 321 | 6.0 | 16.0 | 0.00 | 0.00 | 0.00 | 46 | 1014.0 |
| 20260507162546 | 58 | 259 | 4.0 | 17.0 | 0.00 | 0.00 | 0.00 | 46 | 1013.9 |
| 20260507162047 | 58 | 320 | 5.0 | 17.0 | 0.00 | 0.00 | 0.00 | 47 | 1014.1 |
| 20260507161609 | 59 | 315 | 11.0 | 17.0 | 0.00 | 0.00 | 0.00 | 47 | 1014.0 |
| 20260507161046 | 59 | 294 | 5.0 | 12.0 | 0.00 | 0.00 | 0.00 | 51 | 1014.2 |